When you browse on this site, cookies collect data to enhance your experience and personalize the content and advertising you see.
Visit our Privacy Policy to learn more. By continuing to use the site, you agree to this use of cookies and data.
  • In Czech Republic
  • List of Countries
  • For 7 days
  • Water Temperature
  • Satellite Maps
  • Weather Map
  • Weather Widgets
  • user-avatar
    Login

    Hourly Weather Minneapolis

    Today, 15 December, Saturday

    Time Temperature Precipitation Wind Pressure Humidity
    00:00 -2°C° 0 mm 1 mps 742 mmHg 85%
    01:00 -2°C° 0 mm 1 mps 742 mmHg 84%
    02:00 -2°C° 0 mm 1 mps 742 mmHg 84%
    03:00 -2°C° 0 mm 1 mps 742 mmHg 83%
    04:00 -4°C° 0 mm 2 mps 742 mmHg 83%
    05:00 -4°C° 0 mm 2 mps 742 mmHg 83%
    06:00 -4°C° 0 mm 2 mps 742 mmHg 83%
    07:00 -4°C° 0 mm 2 mps 742 mmHg 82%
    08:00 -4°C° 0 mm 2 mps 742 mmHg 82%
    09:00 -4°C° 0 mm 3 mps 742 mmHg 81%
    10:00 -2°C° 0 mm 3 mps 742 mmHg 80%
    11:00 -2°C° 0 mm 4 mps 741 mmHg 78%
    12:00 -1°C° 0 mm 4 mps 741 mmHg 76%
    13:00 -1°C° 0 mm 4 mps 741 mmHg 76%
    14:00 -1°C° 0 mm 4 mps 740 mmHg 76%
    15:00 0°C° 0 mm 4 mps 740 mmHg 76%
    16:00 -1°C° 0 mm 4 mps 740 mmHg 76%
    17:00 -2°C° 0 mm 4 mps 740 mmHg 75%
    18:00 -2°C° 0 mm 4 mps 739 mmHg 75%
    19:00 -2°C° 0 mm 5 mps 739 mmHg 74%
    20:00 -2°C° 0 mm 5 mps 739 mmHg 73%
    21:00 -2°C° 0 mm 5 mps 739 mmHg 72%
    22:00 -3°C° 0 mm 4 mps 739 mmHg 76%
    23:00 -3°C° 0 mm 4 mps 739 mmHg 80%

    Tomorrow, 16 December, Sunday

    Time Temperature Precipitation Wind Pressure Humidity
    00:00 -2°C° 0 mm 3 mps 739 mmHg 84%
    01:00 -4°C° 0 mm 3 mps 739 mmHg 86%
    02:00 -4°C° 0 mm 3 mps 740 mmHg 88%
    03:00 -4°C° 0 mm 3 mps 740 mmHg 90%
    04:00 -4°C° 0 mm 3 mps 740 mmHg 88%
    05:00 -4°C° 0 mm 3 mps 740 mmHg 87%
    06:00 -4°C° 0 mm 3 mps 740 mmHg 85%
    07:00 -2°C° 0 mm 3 mps 740 mmHg 85%
    08:00 -2°C° 0 mm 3 mps 741 mmHg 84%
    09:00 -2°C° 0 mm 3 mps 741 mmHg 83%
    10:00 -2°C° 0 mm 4 mps 741 mmHg 81%
    11:00 -1°C° 0 mm 4 mps 741 mmHg 79%
    12:00 -1°C° 0 mm 4 mps 741 mmHg 77%
    13:00 -1°C° 0 mm 4 mps 741 mmHg 75%
    14:00 -1°C° 0 mm 4 mps 741 mmHg 73%
    15:00 -1°C° 0 mm 4 mps 742 mmHg 70%
    16:00 -2°C° 0 mm 4 mps 742 mmHg 71%
    17:00 -3°C° 0 mm 4 mps 742 mmHg 72%
    18:00 -4°C° 0 mm 4 mps 743 mmHg 72%
    19:00 -4°C° 0 mm 4 mps 743 mmHg 73%
    20:00 -5°C° 0 mm 4 mps 743 mmHg 74%
    21:00 -5°C° 0 mm 4 mps 744 mmHg 76%
    22:00 -5°C° 0 mm 4 mps 744 mmHg 77%
    23:00 -6°C° 0 mm 3 mps 744 mmHg 78%

    Day after tomorrow, 17 December, Monday

    Time Temperature Precipitation Wind Pressure Humidity
    00:00 -6°C° 0 mm 3 mps 744 mmHg 79%
    01:00 -7°C° 0 mm 3 mps 745 mmHg 79%
    02:00 -7°C° 0 mm 3 mps 745 mmHg 80%
    03:00 -6°C° 0 mm 2 mps 745 mmHg 81%
    04:00 -7°C° 0 mm 2 mps 745 mmHg 81%
    05:00 -7°C° 0 mm 2 mps 745 mmHg 82%
    06:00 -7°C° 0 mm 2 mps 745 mmHg 82%
    07:00 -6°C° 0 mm 1 mps 745 mmHg 82%
    08:00 -6°C° 0 mm 1 mps 745 mmHg 81%
    09:00 -6°C° 0 mm 1 mps 746 mmHg 81%
    10:00 -4°C° 0 mm 1 mps 746 mmHg 77%
    11:00 -4°C° 0 mm 0 mps 745 mmHg 72%
    12:00 -3°C° 0 mm 0 mps 745 mmHg 68%
    13:00 -2°C° 0 mm 1 mps 745 mmHg 69%
    14:00 -2°C° 0 mm 1 mps 744 mmHg 70%
    15:00 -1°C° 0 mm 1 mps 744 mmHg 71%
    16:00 -2°C° 0 mm 1 mps 744 mmHg 74%
    17:00 -5°C° 0 mm 2 mps 744 mmHg 77%
    18:00 -5°C° 0 mm 2 mps 743 mmHg 80%
    19:00 -5°C° 0 mm 2 mps 743 mmHg 79%
    20:00 -7°C° 0 mm 3 mps 743 mmHg 79%
    21:00 -7°C° 0 mm 3 mps 742 mmHg 78%
    22:00 -7°C° 0 mm 3 mps 742 mmHg 77%
    23:00 -7°C° 0 mm 3 mps 742 mmHg 76%

    18 December, Tuesday

    Time Temperature Precipitation Wind Pressure Humidity
    00:00 -8°C° 0 mm 4 mps 741 mmHg 75%
    01:00 -7°C° 0 mm 4 mps 741 mmHg 75%
    02:00 -7°C° 0 mm 4 mps 740 mmHg 75%
    03:00 -7°C° 0 mm 5 mps 740 mmHg 75%
    04:00 -7°C° 0 mm 5 mps 739 mmHg 77%
    05:00 -6°C° 0 mm 5 mps 739 mmHg 79%
    06:00 -6°C° 0 mm 5 mps 738 mmHg 80%
    07:00 -6°C° 0 mm 5 mps 738 mmHg 81%
    08:00 -5°C° 0 mm 5 mps 738 mmHg 81%
    09:00 -5°C° 0 mm 5 mps 737 mmHg 82%
    10:00 -4°C° 0 mm 5 mps 737 mmHg 80%
    11:00 -2°C° 0 mm 5 mps 736 mmHg 79%
    12:00 -2°C° 0 mm 6 mps 736 mmHg 78%
    13:00 -1°C° 0 mm 5 mps 736 mmHg 80%
    14:00 -1°C° 0 mm 4 mps 736 mmHg 83%
    15:00 -1°C° 0 mm 4 mps 735 mmHg 85%
    16:00 0°C° 0 mm 3 mps 735 mmHg 88%
    17:00 -1°C° 0 mm 3 mps 735 mmHg 90%
    18:00 -1°C° 0 mm 3 mps 735 mmHg 93%
    19:00 -2°C° 0 mm 3 mps 735 mmHg 93%
    20:00 -2°C° 0 mm 3 mps 735 mmHg 93%
    21:00 -2°C° 0 mm 2 mps 735 mmHg 93%
    22:00 -2°C° 0 mm 2 mps 735 mmHg 92%
    23:00 -3°C° 0 mm 2 mps 734 mmHg 92%

    19 December, Wednesday

    Time Temperature Precipitation Wind Pressure Humidity
    00:00 -3°C° 0 mm 2 mps 734 mmHg 91%
    01:00 -3°C° 0 mm 2 mps 734 mmHg 90%
    02:00 -3°C° 0 mm 2 mps 733 mmHg 89%
    03:00 -3°C° 0 mm 2 mps 733 mmHg 89%
    04:00 -3°C° 0 mm 2 mps 733 mmHg 87%
    05:00 -4°C° 0 mm 3 mps 732 mmHg 86%
    06:00 -4°C° 0 mm 3 mps 732 mmHg 85%
    07:00 -4°C° 0 mm 3 mps 732 mmHg 83%
    08:00 -2°C° 0 mm 3 mps 731 mmHg 81%
    09:00 -3°C° 0 mm 4 mps 731 mmHg 80%
    10:00 -2°C° 0 mm 4 mps 730 mmHg 79%
    11:00 -1°C° 0 mm 4 mps 729 mmHg 78%
    12:00 0°C° 0 mm 4 mps 729 mmHg 77%
    13:00 0°C° 0.3 mm 4 mps 728 mmHg 81%
    14:00 0°C° 0.3 mm 4 mps 728 mmHg 86%
    15:00 0°C° 0.3 mm 4 mps 727 mmHg 90%
    16:00 0°C° 0.1 mm 3 mps 727 mmHg 91%
    17:00 0°C° 0.1 mm 3 mps 727 mmHg 92%
    18:00 0°C° 0.1 mm 3 mps 727 mmHg 93%
    19:00 0°C° 0 mm 3 mps 727 mmHg 92%
    20:00 0°C° 0 mm 3 mps 727 mmHg 91%
    21:00 0°C° 0 mm 3 mps 727 mmHg 90%
    22:00 0°C° 0 mm 3 mps 727 mmHg 91%
    23:00 -1°C° 0 mm 4 mps 727 mmHg 92%

    20 December, Thursday

    Time Temperature Precipitation Wind Pressure Humidity
    00:00 -2°C° 0 mm 4 mps 728 mmHg 93%
    01:00 -2°C° 0 mm 4 mps 728 mmHg 91%
    02:00 -1°C° 0 mm 4 mps 729 mmHg 90%
    03:00 -1°C° 0 mm 5 mps 730 mmHg 89%
    04:00 -2°C° 0 mm 5 mps 730 mmHg 87%
    05:00 -2°C° 0 mm 5 mps 731 mmHg 85%
    06:00 -2°C° 0 mm 5 mps 731 mmHg 83%
    07:00 -4°C° 0 mm 5 mps 732 mmHg 82%
    08:00 -4°C° 0 mm 5 mps 733 mmHg 81%
    09:00 -3°C° 0 mm 4 mps 733 mmHg 80%
    10:00 -2°C° 0 mm 5 mps 733 mmHg 79%
    11:00 -2°C° 0 mm 5 mps 734 mmHg 79%
    12:00 -2°C° 0 mm 5 mps 734 mmHg 78%
    13:00 -2°C° 0 mm 5 mps 734 mmHg 78%
    14:00 -2°C° 0 mm 5 mps 734 mmHg 77%
    15:00 -2°C° 0 mm 5 mps 735 mmHg 77%
    16:00 -2°C° 0 mm 5 mps 735 mmHg 78%
    17:00 -2°C° 0 mm 4 mps 736 mmHg 79%
    18:00 -3°C° 0 mm 4 mps 736 mmHg 80%
    19:00 -3°C° 0 mm 4 mps 736 mmHg 80%
    20:00 -3°C° 0 mm 4 mps 737 mmHg 80%
    21:00 -3°C° 0 mm 4 mps 737 mmHg 81%
    22:00 -3°C° 0 mm 4 mps 737 mmHg 81%
    23:00 -3°C° 0 mm 4 mps 737 mmHg 81%
    Show more